owner,sensor,date,latitude,longitude,vertical_datum,sea_water_temperature,qcFlag
BP,ioos:station:wmo:42907:1,2021-05-29T14:27:00Z,27.1318,-90.3386,20.9,26.4,11111222
BP,ioos:station:wmo:42907:1,2021-05-29T14:37:00Z,27.1318,-90.3386,20.9,26.5,11111222
BP,ioos:station:wmo:42907:1,2021-05-29T14:47:00Z,27.1318,-90.3386,21.0,26.5,11111222
BP,ioos:station:wmo:42907:1,2021-05-29T14:57:00Z,27.1318,-90.3386,21.0,26.5,11111222
BP,ioos:station:wmo:42907:1,2021-05-29T15:07:00Z,27.1318,-90.3386,20.9,26.5,11111222
BP,ioos:station:wmo:42907:1,2021-05-29T15:17:00Z,27.1318,-90.3386,20.8,26.5,11111222
BP,ioos:station:wmo:42907:1,2021-05-29T15:27:00Z,27.1318,-90.3386,21.0,26.5,11111222
BP,ioos:station:wmo:42907:1,2021-05-29T15:37:00Z,27.1318,-90.3386,20.9,26.5,11111222
BP,ioos:station:wmo:42907:1,2021-05-29T15:47:00Z,27.1318,-90.3386,20.8,26.4,11111222
BP,ioos:station:wmo:42907:1,2021-05-29T15:57:00Z,27.1318,-90.3386,20.9,26.4,11111222
BP,ioos:station:wmo:42907:1,2021-05-29T16:08:00Z,27.1318,-90.3386,20.9,26.4,11111222
BP,ioos:station:wmo:42907:1,2021-05-29T16:18:00Z,27.1318,-90.3386,20.9,26.4,11111222
BP,ioos:station:wmo:42907:1,2021-05-29T16:28:00Z,27.1318,-90.3386,20.9,26.4,11111222
BP,ioos:station:wmo:42907:1,2021-05-29T16:38:00Z,27.1318,-90.3386,21.0,26.4,11111222
BP,ioos:station:wmo:42907:1,2021-05-29T16:48:00Z,27.1318,-90.3386,21.0,26.4,11111222
BP,ioos:station:wmo:42907:1,2021-05-29T16:58:00Z,27.1318,-90.3386,20.9,26.4,11111222
BP,ioos:station:wmo:42907:1,2021-05-29T17:08:00Z,27.1318,-90.3386,20.9,26.4,11111222
BP,ioos:station:wmo:42907:1,2021-05-29T17:18:00Z,27.1318,-90.3386,20.9,26.4,11111222
BP,ioos:station:wmo:42907:1,2021-05-29T17:28:00Z,27.1318,-90.3386,21.0,26.4,11111222
BP,ioos:station:wmo:42907:1,2021-05-29T17:38:00Z,27.1318,-90.3386,21.0,26.4,11111222
BP,ioos:station:wmo:42907:1,2021-05-29T17:48:00Z,27.1318,-90.3386,21.0,26.4,11111222
BP,ioos:station:wmo:42907:1,2021-05-29T17:58:00Z,27.1318,-90.3386,21.0,26.4,11111222
BP,ioos:station:wmo:42907:1,2021-05-29T18:08:00Z,27.1318,-90.3386,21.0,26.5,11111222
BP,ioos:station:wmo:42907:1,2021-05-29T18:18:00Z,27.1318,-90.3386,21.0,26.4,11111222
BP,ioos:station:wmo:42907:1,2021-05-29T18:28:00Z,27.1318,-90.3386,21.0,26.4,11111222
BP,ioos:station:wmo:42907:1,2021-05-29T18:38:00Z,27.1318,-90.3386,21.0,26.5,11111222
BP,ioos:station:wmo:42907:1,2021-05-29T18:48:00Z,27.1318,-90.3386,21.0,26.5,11111222
BP,ioos:station:wmo:42907:1,2021-05-29T18:58:00Z,27.1318,-90.3386,20.9,26.5,11111222
BP,ioos:station:wmo:42907:1,2021-05-29T19:08:00Z,27.1318,-90.3386,20.9,26.5,11111222
BP,ioos:station:wmo:42907:1,2021-05-29T19:18:00Z,27.1318,-90.3386,20.9,26.5,11111222
BP,ioos:station:wmo:42907:1,2021-05-29T19:28:00Z,27.1318,-90.3386,20.9,26.5,11111222
BP,ioos:station:wmo:42907:1,2021-05-29T19:38:00Z,27.1318,-90.3386,20.9,26.5,11111222
BP,ioos:station:wmo:42907:1,2021-05-29T19:48:00Z,27.1318,-90.3386,20.9,26.5,11111222
BP,ioos:station:wmo:42907:1,2021-05-29T19:58:00Z,27.1318,-90.3386,20.9,26.5,11111222
BP,ioos:station:wmo:42907:1,2021-05-29T20:08:00Z,27.1318,-90.3386,20.9,26.5,11111222
BP,ioos:station:wmo:42907:1,2021-05-29T20:18:00Z,27.1318,-90.3386,20.9,26.5,11111222
BP,ioos:station:wmo:42907:1,2021-05-29T20:28:00Z,27.1318,-90.3386,20.9,26.5,11111222
BP,ioos:station:wmo:42907:1,2021-05-29T20:38:00Z,27.1318,-90.3386,20.9,26.5,11111222
BP,ioos:station:wmo:42907:1,2021-05-29T20:48:00Z,27.1318,-90.3386,20.9,26.5,11111222
BP,ioos:station:wmo:42907:1,2021-05-29T20:58:00Z,27.1318,-90.3386,20.7,26.5,11111222
BP,ioos:station:wmo:42907:1,2021-05-29T21:08:00Z,27.1318,-90.3386,20.6,26.6,11111222
BP,ioos:station:wmo:42907:1,2021-05-29T21:18:00Z,27.1318,-90.3386,20.9,26.6,11111222
BP,ioos:station:wmo:42907:1,2021-05-29T21:28:00Z,27.1318,-90.3386,21.0,26.6,11111222
BP,ioos:station:wmo:42907:1,2021-05-29T21:38:00Z,27.1318,-90.3386,21.0,26.6,11111222
BP,ioos:station:wmo:42907:1,2021-05-29T21:48:00Z,27.1318,-90.3386,21.0,26.5,11111222
BP,ioos:station:wmo:42907:1,2021-05-29T21:58:00Z,27.1318,-90.3386,21.0,26.5,11111222
BP,ioos:station:wmo:42907:1,2021-05-29T22:08:00Z,27.1318,-90.3386,21.0,26.5,11111222
BP,ioos:station:wmo:42907:1,2021-05-29T22:18:00Z,27.1318,-90.3386,21.1,26.5,11111222
BP,ioos:station:wmo:42907:1,2021-05-29T22:28:00Z,27.1318,-90.3386,21.1,26.5,11111222
BP,ioos:station:wmo:42907:1,2021-05-29T22:38:00Z,27.1318,-90.3386,21.2,26.5,11111222
BP,ioos:station:wmo:42907:1,2021-05-29T22:48:00Z,27.1318,-90.3386,21.2,26.5,11111222
BP,ioos:station:wmo:42907:1,2021-05-29T22:58:00Z,27.1318,-90.3386,21.1,26.6,11111222
BP,ioos:station:wmo:42907:1,2021-05-29T23:08:00Z,27.1318,-90.3386,21.1,26.6,11111222
BP,ioos:station:wmo:42907:1,2021-05-29T23:18:00Z,27.1318,-90.3386,21.1,26.6,11111222
BP,ioos:station:wmo:42907:1,2021-05-29T23:29:00Z,27.1318,-90.3386,21.0,26.6,11111222
BP,ioos:station:wmo:42907:1,2021-05-29T23:39:00Z,27.1318,-90.3386,21.0,26.6,11111222
BP,ioos:station:wmo:42907:1,2021-05-29T23:49:00Z,27.1318,-90.3386,21.0,26.6,11111222
BP,ioos:station:wmo:42907:1,2021-05-29T23:59:00Z,27.1318,-90.3386,21.0,26.6,11111222
BP,ioos:station:wmo:42907:1,2021-05-30T00:09:00Z,27.1318,-90.3386,21.1,26.6,11111222
BP,ioos:station:wmo:42907:1,2021-05-30T00:19:00Z,27.1318,-90.3386,21.1,26.6,11111222
BP,ioos:station:wmo:42907:1,2021-05-30T00:29:00Z,27.1318,-90.3386,21.1,26.6,11111222
BP,ioos:station:wmo:42907:1,2021-05-30T00:39:00Z,27.1318,-90.3386,21.0,26.6,11111222
BP,ioos:station:wmo:42907:1,2021-05-30T00:49:00Z,27.1318,-90.3386,21.1,26.6,11111222
BP,ioos:station:wmo:42907:1,2021-05-30T00:59:00Z,27.1318,-90.3386,21.0,26.6,11111222
BP,ioos:station:wmo:42907:1,2021-05-30T01:09:00Z,27.1318,-90.3386,21.0,26.6,11111222
BP,ioos:station:wmo:42907:1,2021-05-30T01:19:00Z,27.1318,-90.3386,21.0,26.7,11111222
BP,ioos:station:wmo:42907:1,2021-05-30T01:29:00Z,27.1318,-90.3386,21.0,26.7,11111222
BP,ioos:station:wmo:42907:1,2021-05-30T01:39:00Z,27.1318,-90.3386,21.1,26.7,11111222
BP,ioos:station:wmo:42907:1,2021-05-30T01:49:00Z,27.1318,-90.3386,21.0,26.8,11111222
BP,ioos:station:wmo:42907:1,2021-05-30T01:59:00Z,27.1318,-90.3386,21.0,26.7,11111222
BP,ioos:station:wmo:42907:1,2021-05-30T02:09:00Z,27.1318,-90.3386,21.2,26.7,11111222
BP,ioos:station:wmo:42907:1,2021-05-30T02:19:00Z,27.1318,-90.3386,21.2,26.6,11111222
BP,ioos:station:wmo:42907:1,2021-05-30T02:29:00Z,27.1318,-90.3386,21.2,26.6,11111222
BP,ioos:station:wmo:42907:1,2021-05-30T02:39:00Z,27.1318,-90.3386,21.0,26.6,11111222
BP,ioos:station:wmo:42907:1,2021-05-30T02:49:00Z,27.1318,-90.3386,20.9,26.6,11111222
BP,ioos:station:wmo:42907:1,2021-05-30T02:59:00Z,27.1318,-90.3386,20.8,26.6,11111222
BP,ioos:station:wmo:42907:1,2021-05-30T03:09:00Z,27.1318,-90.3386,20.9,26.6,11111222
BP,ioos:station:wmo:42907:1,2021-05-30T03:19:00Z,27.1318,-90.3386,21.0,26.7,11111222
BP,ioos:station:wmo:42907:1,2021-05-30T03:29:00Z,27.1318,-90.3386,21.0,26.6,11111222
BP,ioos:station:wmo:42907:1,2021-05-30T03:39:00Z,27.1318,-90.3386,20.8,26.7,11111222
BP,ioos:station:wmo:42907:1,2021-05-30T03:49:00Z,27.1318,-90.3386,20.7,26.7,11111222
BP,ioos:station:wmo:42907:1,2021-05-30T03:59:00Z,27.1318,-90.3386,20.7,26.6,11111222
BP,ioos:station:wmo:42907:1,2021-05-30T04:09:00Z,27.1318,-90.3386,20.7,26.6,11111222
BP,ioos:station:wmo:42907:1,2021-05-30T04:19:00Z,27.1318,-90.3386,20.7,26.6,11111222
BP,ioos:station:wmo:42907:1,2021-05-30T04:29:00Z,27.1318,-90.3386,20.9,26.6,11111222
BP,ioos:station:wmo:42907:1,2021-05-30T04:39:00Z,27.1318,-90.3386,20.9,26.7,11111222
BP,ioos:station:wmo:42907:1,2021-05-30T04:49:00Z,27.1318,-90.3386,21.0,26.7,11111222
BP,ioos:station:wmo:42907:1,2021-05-30T04:59:00Z,27.1318,-90.3386,20.9,26.7,11111222
BP,ioos:station:wmo:42907:1,2021-05-30T05:09:00Z,27.1318,-90.3386,20.9,26.7,11111222
BP,ioos:station:wmo:42907:1,2021-05-30T05:19:00Z,27.1318,-90.3386,20.9,26.7,11111222
BP,ioos:station:wmo:42907:1,2021-05-30T05:29:00Z,27.1318,-90.3386,20.9,26.7,11111222
BP,ioos:station:wmo:42907:1,2021-05-30T05:39:00Z,27.1318,-90.3386,20.9,26.6,11111222
BP,ioos:station:wmo:42907:1,2021-05-30T05:49:00Z,27.1318,-90.3386,20.9,26.6,11111222
BP,ioos:station:wmo:42907:1,2021-05-30T05:59:00Z,27.1318,-90.3386,20.9,26.6,11111222
BP,ioos:station:wmo:42907:1,2021-05-30T06:09:00Z,27.1318,-90.3386,20.9,26.6,11111222
BP,ioos:station:wmo:42907:1,2021-05-30T06:19:00Z,27.1318,-90.3386,21.0,26.6,11111222
BP,ioos:station:wmo:42907:1,2021-05-30T06:29:00Z,27.1318,-90.3386,21.0,26.6,11111222
BP,ioos:station:wmo:42907:1,2021-05-30T06:39:00Z,27.1318,-90.3386,21.0,26.6,11111222
BP,ioos:station:wmo:42907:1,2021-05-30T06:50:00Z,27.1318,-90.3386,21.0,26.6,11111222
BP,ioos:station:wmo:42907:1,2021-05-30T07:00:00Z,27.1318,-90.3386,21.0,26.6,11111222
BP,ioos:station:wmo:42907:1,2021-05-30T07:10:00Z,27.1318,-90.3386,21.0,26.6,11111222
BP,ioos:station:wmo:42907:1,2021-05-30T07:20:00Z,27.1318,-90.3386,21.0,26.6,11111222
BP,ioos:station:wmo:42907:1,2021-05-30T07:30:00Z,27.1318,-90.3386,21.0,26.6,11111222
BP,ioos:station:wmo:42907:1,2021-05-30T07:40:00Z,27.1318,-90.3386,21.0,26.6,11111222
BP,ioos:station:wmo:42907:1,2021-05-30T07:50:00Z,27.1318,-90.3386,21.0,26.6,11111222
BP,ioos:station:wmo:42907:1,2021-05-30T08:00:00Z,27.1318,-90.3386,21.0,26.6,11111222
BP,ioos:station:wmo:42907:1,2021-05-30T08:10:00Z,27.1318,-90.3386,21.0,26.7,11111222
BP,ioos:station:wmo:42907:1,2021-05-30T08:20:00Z,27.1318,-90.3386,21.0,26.7,11111222
BP,ioos:station:wmo:42907:1,2021-05-30T08:30:00Z,27.1318,-90.3386,21.0,26.7,11111222
BP,ioos:station:wmo:42907:1,2021-05-30T08:40:00Z,27.1318,-90.3386,21.0,26.6,11111222
BP,ioos:station:wmo:42907:1,2021-05-30T08:50:00Z,27.1318,-90.3386,20.9,26.6,11111222
BP,ioos:station:wmo:42907:1,2021-05-30T09:00:00Z,27.1318,-90.3386,20.8,26.5,11111222
BP,ioos:station:wmo:42907:1,2021-05-30T09:10:00Z,27.1318,-90.3386,20.9,26.6,11111222
BP,ioos:station:wmo:42907:1,2021-05-30T09:20:00Z,27.1318,-90.3386,21.0,26.6,11111222
BP,ioos:station:wmo:42907:1,2021-05-30T09:30:00Z,27.1318,-90.3386,20.8,26.6,11111222
BP,ioos:station:wmo:42907:1,2021-05-30T09:40:00Z,27.1318,-90.3386,20.8,26.6,11111222
BP,ioos:station:wmo:42907:1,2021-05-30T09:50:00Z,27.1318,-90.3386,20.9,26.6,11111222
BP,ioos:station:wmo:42907:1,2021-05-30T10:00:00Z,27.1318,-90.3386,20.9,26.6,11111222
BP,ioos:station:wmo:42907:1,2021-05-30T10:10:00Z,27.1318,-90.3386,20.9,26.6,11111222
BP,ioos:station:wmo:42907:1,2021-05-30T10:20:00Z,27.1318,-90.3386,21.0,26.6,11111222
BP,ioos:station:wmo:42907:1,2021-05-30T10:30:00Z,27.1318,-90.3386,20.9,26.6,11111222
BP,ioos:station:wmo:42907:1,2021-05-30T10:40:00Z,27.1318,-90.3386,21.0,26.6,11111222
BP,ioos:station:wmo:42907:1,2021-05-30T10:50:00Z,27.1318,-90.3386,21.0,26.6,11111222
BP,ioos:station:wmo:42907:1,2021-05-30T11:00:00Z,27.1318,-90.3386,21.0,26.6,11111222
BP,ioos:station:wmo:42907:1,2021-05-30T11:10:00Z,27.1318,-90.3386,20.9,26.6,11111222
BP,ioos:station:wmo:42907:1,2021-05-30T11:20:00Z,27.1318,-90.3386,20.9,26.6,11111222
BP,ioos:station:wmo:42907:1,2021-05-30T11:30:00Z,27.1318,-90.3386,20.9,26.6,11111222
BP,ioos:station:wmo:42907:1,2021-05-30T11:40:00Z,27.1318,-90.3386,20.9,26.6,11111222
BP,ioos:station:wmo:42907:1,2021-05-30T11:50:00Z,27.1318,-90.3386,20.9,26.6,11111222
BP,ioos:station:wmo:42907:1,2021-05-30T12:00:00Z,27.1318,-90.3386,20.9,26.6,11111222
BP,ioos:station:wmo:42907:1,2021-05-30T12:10:00Z,27.1318,-90.3386,21.0,26.6,11111222
BP,ioos:station:wmo:42907:1,2021-05-30T12:20:00Z,27.1318,-90.3386,21.0,26.6,11111222
BP,ioos:station:wmo:42907:1,2021-05-30T12:30:00Z,27.1318,-90.3386,21.1,26.6,11111222
BP,ioos:station:wmo:42907:1,2021-05-30T12:40:00Z,27.1318,-90.3386,21.1,26.6,11111222
BP,ioos:station:wmo:42907:1,2021-05-30T12:50:00Z,27.1318,-90.3386,21.1,26.6,11111222
BP,ioos:station:wmo:42907:1,2021-05-30T13:00:00Z,27.1318,-90.3386,21.1,26.7,11111222
BP,ioos:station:wmo:42907:1,2021-05-30T13:10:00Z,27.1318,-90.3386,20.8,26.7,11111222
BP,ioos:station:wmo:42907:1,2021-05-30T13:20:00Z,27.1318,-90.3386,20.9,26.7,11111222
BP,ioos:station:wmo:42907:1,2021-05-30T13:30:00Z,27.1318,-90.3386,21.0,26.7,11111222
BP,ioos:station:wmo:42907:1,2021-05-30T13:40:00Z,27.1318,-90.3386,21.0,26.7,11111222
BP,ioos:station:wmo:42907:1,2021-05-30T13:50:00Z,27.1318,-90.3386,20.9,26.7,11111222
BP,ioos:station:wmo:42907:1,2021-05-30T14:01:00Z,27.1318,-90.3386,20.9,26.7,11111222
BP,ioos:station:wmo:42907:1,2021-05-30T14:11:00Z,27.1318,-90.3386,20.9,26.7,11111222
BP,ioos:station:wmo:42907:1,2021-05-30T14:21:00Z,27.1318,-90.3386,20.9,26.7,11111222
BP,ioos:station:wmo:42907:1,2021-05-30T14:31:00Z,27.1318,-90.3386,20.9,26.7,11111222
BP,ioos:station:wmo:42907:1,2021-05-30T14:41:00Z,27.1318,-90.3386,20.9,26.7,11111222
BP,ioos:station:wmo:42907:1,2021-05-30T14:51:00Z,27.1318,-90.3386,20.9,26.7,11111222
BP,ioos:station:wmo:42907:1,2021-05-30T15:01:00Z,27.1318,-90.3386,20.9,26.7,11111222
BP,ioos:station:wmo:42907:1,2021-05-30T15:11:00Z,27.1318,-90.3386,20.9,26.7,11111222
BP,ioos:station:wmo:42907:1,2021-05-30T15:21:00Z,27.1318,-90.3386,21.0,26.7,11111222
BP,ioos:station:wmo:42907:1,2021-05-30T15:31:00Z,27.1318,-90.3386,21.0,26.7,11111222
BP,ioos:station:wmo:42907:1,2021-05-30T15:41:00Z,27.1318,-90.3386,21.0,26.7,11111222
BP,ioos:station:wmo:42907:1,2021-05-30T15:51:00Z,27.1318,-90.3386,21.1,26.7,11111222
BP,ioos:station:wmo:42907:1,2021-05-30T16:01:00Z,27.1318,-90.3386,21.0,26.8,11111222
BP,ioos:station:wmo:42907:1,2021-05-30T16:11:00Z,27.1318,-90.3386,20.9,26.8,11111222
BP,ioos:station:wmo:42907:1,2021-05-30T16:21:00Z,27.1318,-90.3386,20.9,26.8,11111222
BP,ioos:station:wmo:42907:1,2021-05-30T16:31:00Z,27.1318,-90.3386,20.9,26.8,11111222
BP,ioos:station:wmo:42907:1,2021-05-30T16:41:00Z,27.1318,-90.3386,20.9,26.8,11111222
BP,ioos:station:wmo:42907:1,2021-05-30T16:51:00Z,27.1318,-90.3386,20.9,26.8,11111222
BP,ioos:station:wmo:42907:1,2021-05-30T17:01:00Z,27.1318,-90.3386,20.9,26.8,11111222
BP,ioos:station:wmo:42907:1,2021-05-30T17:11:00Z,27.1318,-90.3386,20.9,26.8,11111222
BP,ioos:station:wmo:42907:1,2021-05-30T17:21:00Z,27.1318,-90.3386,20.9,26.7,11111222
BP,ioos:station:wmo:42907:1,2021-05-30T17:31:00Z,27.1318,-90.3386,20.9,26.6,11111222
BP,ioos:station:wmo:42907:1,2021-05-30T17:41:00Z,27.1318,-90.3386,20.9,26.6,11111222
BP,ioos:station:wmo:42907:1,2021-05-30T17:51:00Z,27.1318,-90.3386,21.0,26.6,11111222
BP,ioos:station:wmo:42907:1,2021-05-30T18:01:00Z,27.1318,-90.3386,20.9,26.6,11111222
BP,ioos:station:wmo:42907:1,2021-05-30T18:11:00Z,27.1318,-90.3386,20.8,26.6,11111222
BP,ioos:station:wmo:42907:1,2021-05-30T18:21:00Z,27.1318,-90.3386,20.9,26.6,11111222
BP,ioos:station:wmo:42907:1,2021-05-30T18:31:00Z,27.1318,-90.3386,21.0,26.5,11111222
BP,ioos:station:wmo:42907:1,2021-05-30T18:41:00Z,27.1318,-90.3386,21.0,26.5,11111222
BP,ioos:station:wmo:42907:1,2021-05-30T18:51:00Z,27.1318,-90.3386,21.0,26.5,11111222
BP,ioos:station:wmo:42907:1,2021-05-30T19:01:00Z,27.1318,-90.3386,21.3,26.5,11111222
BP,ioos:station:wmo:42907:1,2021-05-30T19:11:00Z,27.1318,-90.3386,21.2,26.5,11111222
BP,ioos:station:wmo:42907:1,2021-05-30T19:21:00Z,27.1318,-90.3386,21.3,26.5,11111222
BP,ioos:station:wmo:42907:1,2021-05-30T19:31:00Z,27.1318,-90.3386,21.2,26.7,11111222
BP,ioos:station:wmo:42907:1,2021-05-30T19:41:00Z,27.1318,-90.3386,21.2,27.0,11111222
BP,ioos:station:wmo:42907:1,2021-05-30T19:51:00Z,27.1318,-90.3386,21.2,27.1,11111222
BP,ioos:station:wmo:42907:1,2021-05-30T20:01:00Z,27.1318,-90.3386,21.3,27.1,11111222
BP,ioos:station:wmo:42907:1,2021-05-30T20:11:00Z,27.1318,-90.3386,21.3,27.1,11111222
BP,ioos:station:wmo:42907:1,2021-05-30T20:21:00Z,27.1318,-90.3386,21.3,27.1,11111222
BP,ioos:station:wmo:42907:1,2021-05-30T20:31:00Z,27.1318,-90.3386,21.2,27.1,11111222
BP,ioos:station:wmo:42907:1,2021-05-30T20:41:00Z,27.1318,-90.3386,21.4,27.1,11111222
BP,ioos:station:wmo:42907:1,2021-05-30T20:51:00Z,27.1318,-90.3386,21.3,27.1,11111222
BP,ioos:station:wmo:42907:1,2021-05-30T21:01:00Z,27.1318,-90.3386,21.3,27.1,11111222
BP,ioos:station:wmo:42907:1,2021-05-30T21:11:00Z,27.1318,-90.3386,21.1,27.1,11111222
BP,ioos:station:wmo:42907:1,2021-05-30T21:22:00Z,27.1318,-90.3386,21.1,27.1,11111222
BP,ioos:station:wmo:42907:1,2021-05-30T21:32:00Z,27.1318,-90.3386,21.1,27.1,11111222
BP,ioos:station:wmo:42907:1,2021-05-30T21:42:00Z,27.1318,-90.3386,21.2,27.1,11111222
BP,ioos:station:wmo:42907:1,2021-05-30T21:52:00Z,27.1318,-90.3386,21.2,27.1,11111222
BP,ioos:station:wmo:42907:1,2021-05-30T22:02:00Z,27.1318,-90.3386,21.2,27.2,11111222
BP,ioos:station:wmo:42907:1,2021-05-30T22:12:00Z,27.1318,-90.3386,21.2,27.2,11111222
BP,ioos:station:wmo:42907:1,2021-05-30T22:22:00Z,27.1318,-90.3386,21.3,27.1,11111222
BP,ioos:station:wmo:42907:1,2021-05-30T22:32:00Z,27.1318,-90.3386,21.2,27.2,11111222
BP,ioos:station:wmo:42907:1,2021-05-30T22:42:00Z,27.1318,-90.3386,21.0,27.2,11111222
BP,ioos:station:wmo:42907:1,2021-05-30T22:52:00Z,27.1318,-90.3386,20.9,27.2,11111222
BP,ioos:station:wmo:42907:1,2021-05-30T23:02:00Z,27.1318,-90.3386,21.1,27.2,11111222
BP,ioos:station:wmo:42907:1,2021-05-30T23:12:00Z,27.1318,-90.3386,21.2,27.2,11111222
BP,ioos:station:wmo:42907:1,2021-05-30T23:22:00Z,27.1318,-90.3386,21.1,27.2,11111222
BP,ioos:station:wmo:42907:1,2021-05-30T23:32:00Z,27.1318,-90.3386,21.0,27.2,11111222
BP,ioos:station:wmo:42907:1,2021-05-30T23:42:00Z,27.1318,-90.3386,21.0,27.2,11111222
BP,ioos:station:wmo:42907:1,2021-05-30T23:52:00Z,27.1318,-90.3386,21.0,27.2,11111222
BP,ioos:station:wmo:42907:1,2021-05-31T00:02:00Z,27.1318,-90.3386,20.9,27.2,11111222
BP,ioos:station:wmo:42907:1,2021-05-31T00:12:00Z,27.1318,-90.3386,21.1,27.2,11111222
BP,ioos:station:wmo:42907:1,2021-05-31T00:22:00Z,27.1318,-90.3386,21.2,27.2,11111222
BP,ioos:station:wmo:42907:1,2021-05-31T00:32:00Z,27.1318,-90.3386,21.2,27.2,11111222
BP,ioos:station:wmo:42907:1,2021-05-31T00:42:00Z,27.1318,-90.3386,21.3,27.2,11111222
BP,ioos:station:wmo:42907:1,2021-05-31T00:52:00Z,27.1318,-90.3386,21.1,27.1,11111222
BP,ioos:station:wmo:42907:1,2021-05-31T01:02:00Z,27.1318,-90.3386,21.3,27.1,11111222
BP,ioos:station:wmo:42907:1,2021-05-31T01:12:00Z,27.1318,-90.3386,21.2,27.1,11111222
BP,ioos:station:wmo:42907:1,2021-05-31T01:22:00Z,27.1318,-90.3386,21.1,27.1,11111222
BP,ioos:station:wmo:42907:1,2021-05-31T01:32:00Z,27.1318,-90.3386,21.0,27.1,11111222
BP,ioos:station:wmo:42907:1,2021-05-31T01:42:00Z,27.1318,-90.3386,21.0,27.1,11111222
BP,ioos:station:wmo:42907:1,2021-05-31T01:52:00Z,27.1318,-90.3386,21.0,27.0,11111222
BP,ioos:station:wmo:42907:1,2021-05-31T02:02:00Z,27.1318,-90.3386,21.0,27.0,11111222
BP,ioos:station:wmo:42907:1,2021-05-31T02:12:00Z,27.1318,-90.3386,21.0,27.1,11111222
BP,ioos:station:wmo:42907:1,2021-05-31T02:22:00Z,27.1318,-90.3386,20.9,27.1,11111222
BP,ioos:station:wmo:42907:1,2021-05-31T02:32:00Z,27.1318,-90.3386,21.0,27.1,11111222
BP,ioos:station:wmo:42907:1,2021-05-31T02:42:00Z,27.1318,-90.3386,21.0,27.1,11111222
BP,ioos:station:wmo:42907:1,2021-05-31T02:52:00Z,27.1318,-90.3386,21.0,27.1,11111222
BP,ioos:station:wmo:42907:1,2021-05-31T03:02:00Z,27.1318,-90.3386,20.9,27.1,11111222
BP,ioos:station:wmo:42907:1,2021-05-31T03:12:00Z,27.1318,-90.3386,20.9,27.1,11111222
BP,ioos:station:wmo:42907:1,2021-05-31T03:22:00Z,27.1318,-90.3386,20.9,27.0,11111222
BP,ioos:station:wmo:42907:1,2021-05-31T03:32:00Z,27.1318,-90.3386,21.0,27.1,11111222
BP,ioos:station:wmo:42907:1,2021-05-31T03:42:00Z,27.1318,-90.3386,21.0,27.1,11111222
BP,ioos:station:wmo:42907:1,2021-05-31T03:52:00Z,27.1318,-90.3386,21.0,27.1,11111222
BP,ioos:station:wmo:42907:1,2021-05-31T04:02:00Z,27.1318,-90.3386,21.0,27.1,11111222
BP,ioos:station:wmo:42907:1,2021-05-31T04:12:00Z,27.1318,-90.3386,21.0,27.0,11111222
BP,ioos:station:wmo:42907:1,2021-05-31T04:22:00Z,27.1318,-90.3386,21.0,26.8,11111222
BP,ioos:station:wmo:42907:1,2021-05-31T04:32:00Z,27.1318,-90.3386,21.2,26.9,11111222
BP,ioos:station:wmo:42907:1,2021-05-31T04:43:00Z,27.1318,-90.3386,21.2,26.9,11111222
BP,ioos:station:wmo:42907:1,2021-05-31T04:53:00Z,27.1318,-90.3386,21.0,26.8,11111222
BP,ioos:station:wmo:42907:1,2021-05-31T05:03:00Z,27.1318,-90.3386,21.0,26.9,11111222
BP,ioos:station:wmo:42907:1,2021-05-31T05:13:00Z,27.1318,-90.3386,21.0,26.9,11111222
BP,ioos:station:wmo:42907:1,2021-05-31T05:23:00Z,27.1318,-90.3386,21.0,26.8,11111222
BP,ioos:station:wmo:42907:1,2021-05-31T05:33:00Z,27.1318,-90.3386,21.0,26.9,11111222
BP,ioos:station:wmo:42907:1,2021-05-31T05:43:00Z,27.1318,-90.3386,21.0,27.0,11111222
BP,ioos:station:wmo:42907:1,2021-05-31T05:53:00Z,27.1318,-90.3386,21.1,27.0,11111222
BP,ioos:station:wmo:42907:1,2021-05-31T06:03:00Z,27.1318,-90.3386,21.1,26.9,11111222
BP,ioos:station:wmo:42907:1,2021-05-31T06:13:00Z,27.1318,-90.3386,20.9,26.9,11111222
BP,ioos:station:wmo:42907:1,2021-05-31T06:23:00Z,27.1318,-90.3386,20.9,26.8,11111222
BP,ioos:station:wmo:42907:1,2021-05-31T06:33:00Z,27.1318,-90.3386,20.9,26.7,11111222
BP,ioos:station:wmo:42907:1,2021-05-31T06:43:00Z,27.1318,-90.3386,21.1,26.8,11111222
BP,ioos:station:wmo:42907:1,2021-05-31T06:53:00Z,27.1318,-90.3386,20.9,26.9,11111222
BP,ioos:station:wmo:42907:1,2021-05-31T07:03:00Z,27.1318,-90.3386,21.0,26.7,11111222
BP,ioos:station:wmo:42907:1,2021-05-31T07:13:00Z,27.1318,-90.3386,20.9,26.9,11111222
BP,ioos:station:wmo:42907:1,2021-05-31T07:23:00Z,27.1318,-90.3386,20.8,27.0,11111222
BP,ioos:station:wmo:42907:1,2021-05-31T07:33:00Z,27.1318,-90.3386,20.9,27.1,11111222
BP,ioos:station:wmo:42907:1,2021-05-31T07:43:00Z,27.1318,-90.3386,21.1,27.1,11111222
BP,ioos:station:wmo:42907:1,2021-05-31T07:53:00Z,27.1318,-90.3386,21.0,27.1,11111222
BP,ioos:station:wmo:42907:1,2021-05-31T08:03:00Z,27.1318,-90.3386,21.0,27.1,11111222
BP,ioos:station:wmo:42907:1,2021-05-31T08:13:00Z,27.1318,-90.3386,20.9,27.1,11111222
BP,ioos:station:wmo:42907:1,2021-05-31T08:23:00Z,27.1318,-90.3386,21.0,27.1,11111222
BP,ioos:station:wmo:42907:1,2021-05-31T08:33:00Z,27.1318,-90.3386,20.9,27.1,11111222
BP,ioos:station:wmo:42907:1,2021-05-31T08:43:00Z,27.1318,-90.3386,20.9,27.1,11111222
BP,ioos:station:wmo:42907:1,2021-05-31T08:53:00Z,27.1318,-90.3386,20.9,27.1,11111222
BP,ioos:station:wmo:42907:1,2021-05-31T09:03:00Z,27.1318,-90.3386,20.9,27.1,11111222
BP,ioos:station:wmo:42907:1,2021-05-31T09:13:00Z,27.1318,-90.3386,21.0,27.1,11111222
BP,ioos:station:wmo:42907:1,2021-05-31T09:23:00Z,27.1318,-90.3386,20.9,27.1,11111222
BP,ioos:station:wmo:42907:1,2021-05-31T09:33:00Z,27.1318,-90.3386,20.9,27.1,11111222
BP,ioos:station:wmo:42907:1,2021-05-31T09:43:00Z,27.1318,-90.3386,21.0,27.1,11111222
BP,ioos:station:wmo:42907:1,2021-05-31T09:53:00Z,27.1318,-90.3386,21.0,27.1,11111222
BP,ioos:station:wmo:42907:1,2021-05-31T10:03:00Z,27.1318,-90.3386,20.9,27.0,11111222
BP,ioos:station:wmo:42907:1,2021-05-31T10:13:00Z,27.1318,-90.3386,21.0,27.0,11111222
BP,ioos:station:wmo:42907:1,2021-05-31T10:23:00Z,27.1318,-90.3386,20.9,27.0,11111222
BP,ioos:station:wmo:42907:1,2021-05-31T10:33:00Z,27.1318,-90.3386,20.9,27.1,11111222
BP,ioos:station:wmo:42907:1,2021-05-31T10:43:00Z,27.1318,-90.3386,20.9,27.1,11111222
BP,ioos:station:wmo:42907:1,2021-05-31T10:53:00Z,27.1318,-90.3386,21.0,27.1,11111222
BP,ioos:station:wmo:42907:1,2021-05-31T11:03:00Z,27.1318,-90.3386,21.0,27.1,11111222
BP,ioos:station:wmo:42907:1,2021-05-31T11:13:00Z,27.1318,-90.3386,21.0,27.1,11111222
BP,ioos:station:wmo:42907:1,2021-05-31T11:23:00Z,27.1318,-90.3386,21.0,27.1,11111222
BP,ioos:station:wmo:42907:1,2021-05-31T11:33:00Z,27.1318,-90.3386,21.0,27.1,11111222
BP,ioos:station:wmo:42907:1,2021-05-31T11:43:00Z,27.1318,-90.3386,21.0,27.1,11111222
BP,ioos:station:wmo:42907:1,2021-05-31T11:53:00Z,27.1318,-90.3386,21.1,27.1,11111222
BP,ioos:station:wmo:42907:1,2021-05-31T12:04:00Z,27.1318,-90.3386,21.2,27.1,11111222
BP,ioos:station:wmo:42907:1,2021-05-31T12:14:00Z,27.1318,-90.3386,21.0,27.0,11111222
BP,ioos:station:wmo:42907:1,2021-05-31T12:24:00Z,27.1318,-90.3386,21.0,27.0,11111222
BP,ioos:station:wmo:42907:1,2021-05-31T12:34:00Z,27.1318,-90.3386,21.0,27.0,11111222
BP,ioos:station:wmo:42907:1,2021-05-31T12:44:00Z,27.1318,-90.3386,21.1,27.0,11111222